Albuquerque International Sunport Airport
KABQ : now visible

Airfield :











YOU CAN JOIN US ON...

 
LOGIN :

Register | Disclaimer

   EN    FR    IT 

 









Legend :    VFR   Marginal VFR   IFR   Intensive IFR   Very Intensive IFR
Visi :
Ceiling :
>= 8 km
>= 3000ft
5 to 8 km
1000 to 3000 ft
1500m to 5 km
500 to 1000 ft
800 to 1500m
200 to 500 ft
< 800m
< 200 ft
Symbols :   Thunderstorms  Fog  Heavy snow  Heavy precipitations  Wind > 20 kt







- Airport Elevation : 5355 ft
- IATA code : ABQ


KABQ - Albuquerque International Sunport

CURRENT METAR :
  • 210352Z 23008KT 10SM FEW120 23/M01 A3002 RMK AO2 SLP085 T02331011

EXPIRED METARs :
  • 210252Z 21011KT 10SM FEW130 25/M02 A2999 RMK AO2 SLP072 T02501017 53012
  • 210152Z 21009KT 10SM FEW120 26/M01 A2996 RMK AO2 SLP065 T02611006

TAF KABQ
Valid from the 21 at 00:00 until the 22 at 00:00 UTC


202335Z 2100/2124 24012G20KT P6SM FEW090
FM210200 25006KT P6SM FEW120
FM210600 12005KT P6SM SKC
FM211700 22010G17KT P6SM SKC
No reported NOTAMs for that airfield.



MET'MAP, your aeronautical weather chart ! - Copyright ORBIFLY December 2007 - Disclaimer

ORBIFLY MET'MAP TEAM :

Programming & Development : Alexandra Zaïnal
Concept & Development : Baudouin d'Aumeries
Co-Development & Prog : Marc-Olivier Méhu
Technical & hardware support : Manuel Goepfert

Contact : metmap@orbifly.com




SOURCES & CREDITS :

   NOAA       Earth
Advisory